Date String (YYYY-MM-DD hh:mm:ss) UTC,Instrument flags,Ambient pressure (hPa),Sample flow (lpm),Bypass flow (lpm),Sample temperature (°C),Ambient temperature (°C),ASC tube jacket temperature (°C),LED temperature (°C),Box temperature (°C),Sample RH (%),Span deviation,Mass concentration (μg/m³),Mass concentration (μg/m³),Mass concentration (μg/m³)
DateTimeUTC,F1_M11,P_M11,Q1_M11,Q2_M11,T1_M11,T2_M11,T3_M11,T4_M11,T5_M11,U1_M11,ZSPAN_M11,X0_M11,X2_M11,X1_M11
2023-03-05 17:00:00,,0815.3,5.01,0.00,22.5,21.2,00.0,31.1,24.4,12.7,0000.0,0010.37,0004.47,0003.76
2023-03-05 17:01:00,,0815.3,5.01,0.00,22.5,21.2,00.0,31.1,24.4,13.2,0000.2,0009.95,0004.61,0003.87
2023-03-05 17:02:00,,0815.3,5.01,0.00,22.5,21.3,00.0,31.1,24.4,13.0,-000.5,0010.18,0004.74,0003.96
2023-03-05 17:03:00,,0815.3,4.99,0.00,22.5,21.3,00.0,31.1,24.4,12.8,-000.4,0010.81,0004.85,0004.07
2023-03-05 17:04:00,,0815.1,5.02,0.00,22.5,21.4,00.0,31.2,24.4,11.7,-000.5,0011.12,0004.91,0004.12
2023-03-05 17:05:00,,0815.1,5.01,0.00,22.6,21.4,00.0,31.2,24.5,11.8,-000.7,0011.26,0004.94,0004.13
2023-03-05 17:06:00,,0815.3,4.99,0.00,22.6,21.4,00.0,31.2,24.5,12.6,-000.9,0011.51,0005.04,0004.20
2023-03-05 17:07:00,,0815.3,5.00,0.00,22.6,21.3,00.0,31.2,24.4,12.5,-000.8,0011.65,0005.28,0004.32
2023-03-05 17:08:00,,0815.3,4.98,0.00,22.6,21.3,00.0,31.2,24.4,12.4,-000.8,0011.77,0005.47,0004.41
2023-03-05 17:09:00,,0815.3,5.01,0.00,22.6,21.3,00.0,31.2,24.4,11.2,-000.7,0011.51,0005.48,0004.44
2023-03-05 17:10:00,,0815.4,5.00,0.00,22.6,21.3,00.0,31.2,24.4,10.2,-000.8,0011.38,0005.41,0004.35
2023-03-05 17:11:00,,0815.1,5.01,0.00,22.6,21.3,00.0,31.2,24.4,08.9,-000.9,0010.86,0005.21,0004.18
2023-03-05 17:12:00,,0815.1,4.99,0.00,22.6,21.3,00.0,31.2,24.4,08.5,-001.0,0010.50,0004.97,0003.97
2023-03-05 17:13:00,,0815.2,5.00,0.00,22.5,21.3,00.0,31.2,24.3,08.6,-000.0,0010.06,0004.71,0003.77
2023-03-05 17:14:00,,0815.2,4.97,0.00,22.5,21.3,00.0,31.2,24.3,08.4,0000.0,0009.30,0004.44,0003.55
2023-03-05 17:15:00,,0815.1,5.01,0.00,22.5,21.2,00.0,31.2,24.3,08.3,0000.0,0008.67,0004.22,0003.37
2023-03-05 17:16:00,,0815.1,5.00,0.00,22.5,21.2,00.0,31.2,24.3,08.4,0000.0,0008.59,0004.06,0003.23
2023-03-05 17:17:00,,0815.0,5.00,0.00,22.5,21.2,00.0,31.2,24.3,08.3,0000.0,0008.29,0003.87,0003.03
2023-03-05 17:18:00,,0815.0,5.00,0.00,22.5,21.1,00.0,31.2,24.3,08.4,0000.0,0007.92,0003.60,0002.64
2023-03-05 17:19:00,,0814.9,5.01,0.00,22.5,21.1,00.0,31.2,24.3,08.8,0000.0,0007.22,0003.25,0002.23
2023-03-05 17:20:00,,0815.0,5.00,0.00,22.5,21.1,00.0,31.2,24.3,08.3,0000.0,0006.59,0002.96,0001.88
2023-03-05 17:21:00,,0815.2,5.02,0.00,22.5,21.1,00.0,31.2,24.3,08.3,0000.0,0006.10,0002.70,0001.63
2023-03-05 17:22:00,,0815.0,5.00,0.00,22.5,21.2,00.0,31.2,24.3,08.4,0000.0,0005.54,0002.57,0001.54
2023-03-05 17:23:00,,0815.2,4.97,0.00,22.5,21.2,00.0,31.2,24.4,08.8,0000.0,0005.67,0002.61,0001.53
2023-03-05 17:24:00,,0815.0,4.99,0.00,22.5,21.2,00.0,31.2,24.3,08.5,0000.0,0005.75,0002.65,0001.53
2023-03-05 17:25:00,,0815.0,5.01,0.00,22.5,21.2,00.0,31.2,24.3,08.1,0000.0,0005.64,0002.63,0001.52
2023-03-05 17:26:00,,0815.1,4.96,0.00,22.5,21.2,00.0,31.2,24.3,08.5,0000.0,0005.50,0002.60,0001.52
2023-03-05 17:27:00,,0814.9,5.03,0.00,22.5,21.2,00.0,31.2,24.3,08.5,0000.0,0005.16,0002.60,0001.51
2023-03-05 17:28:00,,0815.0,5.01,0.00,22.5,21.2,00.0,31.2,24.3,08.5,0000.0,0004.94,0002.61,0001.51
2023-03-05 17:29:00,,0814.9,4.99,0.00,22.5,21.2,00.0,31.2,24.3,08.2,0000.0,0005.37,0002.56,0001.50
2023-03-05 17:30:00,,0814.9,5.03,0.00,22.5,21.1,00.0,31.2,24.2,07.8,0000.0,0005.34,0002.54,0001.50
2023-03-05 17:31:00,,0814.9,5.02,0.00,22.5,21.1,00.0,31.2,24.2,07.6,0000.0,0005.41,0002.56,0001.50
2023-03-05 17:32:00,,0814.9,4.99,0.00,22.5,21.1,00.0,31.2,24.2,07.9,0000.0,0005.43,0002.53,0001.51
2023-03-05 17:33:00,,0814.8,4.99,0.00,22.5,21.1,00.0,31.2,24.2,08.3,0000.0,0005.46,0002.55,0001.52
2023-03-05 17:34:00,,0814.8,5.01,0.00,22.5,21.1,00.0,31.2,24.2,08.4,0000.0,0005.37,0002.52,0001.52
2023-03-05 17:35:00,,0814.9,4.98,0.00,22.4,21.1,00.0,31.2,24.3,08.1,0000.0,0005.22,0002.49,0001.53
2023-03-05 17:36:00,,0814.8,4.97,0.00,22.5,21.1,00.0,31.2,24.3,08.0,0000.0,0005.16,0002.48,0001.53
2023-03-05 17:37:00,,0815.1,5.02,0.00,22.5,21.2,00.0,31.2,24.3,08.1,0000.0,0005.29,0002.53,0001.52
2023-03-05 17:38:00,,0814.8,4.97,0.00,22.5,21.2,00.0,31.2,24.3,08.1,0000.0,0005.45,0002.57,0001.52
2023-03-05 17:39:00,,0814.8,4.98,0.00,22.5,21.2,00.0,31.2,24.4,08.4,0000.0,0005.70,0002.54,0001.52
2023-03-05 17:40:00,,0814.8,5.01,0.00,22.5,21.2,00.0,31.2,24.3,08.1,0000.0,0005.34,0002.56,0001.50
2023-03-05 17:41:00,,0815.0,4.99,0.00,22.5,21.2,00.0,31.2,24.3,08.2,0000.0,0005.75,0002.56,0001.50
2023-03-05 17:42:00,,0814.9,5.01,0.00,22.5,21.2,00.0,31.2,24.3,08.5,0000.0,0006.85,0002.51,0001.50
2023-03-05 17:43:00,,0814.7,4.97,0.00,22.5,21.2,00.0,31.2,24.3,08.3,0000.0,0006.93,0002.53,0001.50
2023-03-05 17:44:00,,0814.8,4.98,0.00,22.5,21.2,00.0,31.2,24.4,08.2,0000.0,0007.09,0002.54,0001.47
2023-03-05 17:45:00,,0814.9,5.00,0.00,22.5,21.2,00.0,31.2,24.4,08.2,0000.0,0007.20,0002.55,0001.46
2023-03-05 17:46:00,,0814.9,4.99,0.00,22.5,21.2,00.0,31.2,24.4,08.2,0000.0,0007.22,0002.53,0001.44
2023-03-05 17:47:00,,0814.9,5.01,0.00,22.5,21.3,00.0,31.2,24.4,08.6,0000.0,0007.22,0002.54,0001.44
2023-03-05 17:48:00,,0815.0,4.99,0.00,22.5,21.3,00.0,31.2,24.4,08.4,0000.0,0007.62,0002.63,0001.45
2023-03-05 17:49:00,,0815.1,5.02,0.00,22.5,21.2,00.0,31.2,24.3,08.5,0000.0,0007.79,0002.65,0001.44
2023-03-05 17:50:00,,0815.0,5.03,0.00,22.5,21.2,00.0,31.2,24.3,08.5,0000.0,0008.13,0002.68,0001.45
2023-03-05 17:51:00,,0815.1,4.99,0.00,22.5,21.2,00.0,31.2,24.3,08.2,0000.0,0008.30,0002.70,0001.46
2023-03-05 17:52:00,,0815.1,5.01,0.00,22.5,21.2,00.0,31.2,24.4,07.9,0000.0,0008.13,0002.67,0001.46
2023-03-05 17:53:00,,0815.0,5.01,0.00,22.5,21.2,00.0,31.2,24.3,08.1,0000.0,0007.41,0002.68,0001.47
2023-03-05 17:54:00,,0815.0,5.02,0.00,22.5,21.2,00.0,31.2,24.3,08.0,0000.0,0007.37,0002.71,0001.48
2023-03-05 17:55:00,,0814.9,4.99,0.00,22.5,21.2,00.0,31.2,24.4,08.2,0000.0,0007.44,0002.77,0001.48
2023-03-05 17:56:00,,0814.7,5.00,0.00,22.6,21.2,00.0,31.3,24.4,08.2,0000.0,0007.95,0002.85,0001.49
2023-03-05 17:57:00,,0814.9,5.00,0.00,22.6,21.2,00.0,31.3,24.4,08.5,0000.0,0007.92,0002.83,0001.48
2023-03-05 17:58:00,,0814.9,4.99,0.00,22.6,21.3,00.0,31.3,24.4,08.2,0000.0,0008.10,0002.85,0001.49
2023-03-05 17:59:00,,0814.7,4.99,0.00,22.6,21.3,00.0,31.2,24.5,08.7,0000.0,0007.89,0002.81,0001.50
